1518760800.66,34078,9.81,73190.0,-7.77,-8.97,-9.01,0,*51
1518760801.89,34079,9.81,73192.0,-7.77,-8.89,-8.97,0,*51
1518760803.14,34080,9.81,73194.8,-7.77,-9.11,-9.23,0,*59
1518760804.42,34081,9.88,73178.5,-7.77,-9.11,-9.11,0,*59
1518760805.63,34082,9.88,73182.8,-7.75,-9.01,-8.97,0,*56
1518760806.83,34083,9.81,73186.5,-7.75,-8.97,-8.97,0,*59
1518760808.08,34084,9.81,73186.5,-7.75,-9.15,-9.11,0,*5A
1518760809.32,34085,9.88,73188.3,-7.75,-9.11,-9.01,0,*5E
1518760810.54,34086,9.88,73196.3,-7.73,-9.05,-8.97,0,*50
1518760811.75,34087,9.81,73192.3,-7.75,-8.97,-9.01,0,*53
1518760812.96,34088,9.81,73192.3,-7.75,-9.01,-9.01,0,*52
1518760814.18,34089,9.88,73202.0,-7.75,-9.11,-9.23,0,*52
1518760815.44,34090,9.88,73192.8,-7.75,-9.15,-9.15,0,*5B
1518760816.7,34091,9.81,73196.0,-7.75,-9.11,-9.11,0,*5A
1518760817.95,34092,9.81,73196.5,-7.75,-9.11,-9.11,0,*59
1518760819.18,34093,9.81,73196.8,-7.75,-9.37,-9.23,0,*5D
1518760820.41,34094,9.88,73200.0,-7.75,-9.37,-9.27,0,*5E
1518760821.63,34095,9.88,73192.8,-7.75,-9.41,-9.27,0,*5E
1518760822.89,34096,9.81,73190.3,-7.75,-9.37,-9.37,0,*5D
1518760824.16,34097,9.81,73188.5,-7.77,-9.49,-9.49,0,*5E
1518760825.44,34098,9.88,73188.5,-7.77,-9.41,-9.37,0,*50
1518760826.66,34099,9.81,73184.5,-7.79,-9.31,-9.41,0,*59
1518760827.89,34100,9.81,73176.3,-7.79,-9.31,-9.41,0,*58
1518760829.14,34101,9.81,73172.0,-7.77,-9.11,-9.05,0,*55
1518760830.35,34102,9.81,73182.5,-7.79,-9.01,-8.93,0,*57
1518760831.55,34103,9.88,73192.0,-7.79,-8.93,-8.93,0,*5C
1518760832.78,34104,9.81,73182.3,-7.77,-9.01,-9.01,0,*55
1518760834.02,34105,9.81,73186.0,-7.79,-8.81,-8.81,0,*5A
1518760835.23,34106,9.81,73180.0,-7.79,-9.01,-8.93,0,*53
1518760836.48,34107,9.81,73180.0,-7.79,-9.15,-9.15,0,*58
1518760837.71,34108,9.81,73194.8,-7.77,-9.23,-9.01,0,*59
1518760838.91,34109,9.81,73194.0,-7.79,-9.05,-8.93,0,*58
1518760840.12,34110,9.88,73192.3,-7.79,-8.93,-8.93,0,*5E
1518760841.34,34111,9.81,73188.3,-7.77,-8.75,-8.63,0,*56
1518760842.58,34112,9.88,73192.0,-7.79,-8.81,-8.81,0,*5C
1518760843.77,34113,9.88,73190.3,-7.79,-8.67,-8.75,0,*5E
1518760844.99,34114,9.81,73190.8,-7.79,-8.81,-8.89,0,*52
1518760846.22,34115,9.88,73192.3,-7.77,-8.89,-8.89,0,*55
1518760847.45,34116,9.88,73192.5,-7.77,-8.75,-8.85,0,*59
1518760848.68,34117,9.81,73194.8,-7.77,-8.85,-8.85,0,*57
1518760849.92,34118,9.88,73194.0,-7.79,-8.81,-8.81,0,*56
1518760851.15,34119,9.81,73190.0,-7.79,-8.81,-8.89,0,*5F
1518760852.36,34120,9.88,73190.8,-7.79,-8.89,-8.89,0,*5D
1518760853.56,34121,9.88,73192.5,-7.79,-8.89,-8.89,0,*5C
1518760854.8,34122,9.88,73190.3,-7.77,-8.85,-8.85,0,*51
1518760856.0,34123,9.81,73190.0,-7.79,-8.89,-8.75,0,*5D
1518760857.21,34124,9.81,73194.3,-7.77,-8.75,-8.71,0,*53
1518760858.41,34125,9.81,73190.8,-7.79,-8.85,-8.75,0,*57
1518760859.62,34126,9.88,73188.8,-7.79,-8.93,-8.93,0,*5B
1518760860.85,34127,9.81,73176.0,-7.77,-8.85,-8.85,0,*54
1518760862.05,34128,9.81,73182.0,-7.79,-8.75,-8.75,0,*55
1518760863.25,34129,9.88,73188.5,-7.79,-8.93,-8.89,0,*5F
1518760864.46,34130,9.81,73182.0,-7.79,-9.01,-9.05,0,*58
1518760865.72,34131,9.88,73180.8,-7.77,-9.11,-9.01,0,*52
1518760866.97,34132,9.81,73184.5,-7.77,-9.01,-9.11,0,*51
1518760868.18,34133,9.81,73182.0,-7.79,-9.05,-8.93,0,*51
1518760869.38,34134,9.88,73184.0,-7.79,-8.89,-8.89,0,*58
1518760870.61,34135,9.81,73182.5,-7.79,-8.89,-8.81,0,*51
1518760871.81,34136,9.81,73182.3,-7.79,-9.01,-8.93,0,*50
1518760873.02,34137,9.81,73190.8,-7.79,-9.01,-9.01,0,*5B
1518760874.26,34138,9.88,73194.8,-7.79,-8.81,-8.81,0,*54
1518760875.47,34139,9.88,73196.8,-7.79,-8.93,-8.89,0,*5E
1518760876.7,34140,9.88,73196.3,-7.79,-8.89,-8.81,0,*53
1518760877.94,34141,9.81,73190.0,-7.81,-8.67,-8.81,0,*55
1518760879.13,34142,9.88,73194.3,-7.79,-8.67,-8.67,0,*59
1518760880.32,34143,9.88,73190.5,-7.79,-8.75,-8.75,0,*58
1518760881.52,34144,9.88,73198.5,-7.79,-8.89,-8.75,0,*5C
1518760882.74,34145,9.88,73198.8,-7.79,-8.81,-8.75,0,*55
1518760883.93,34146,9.81,73186.3,-7.79,-8.75,-8.67,0,*5E
1518760885.12,34147,9.88,73184.8,-7.79,-8.75,-8.75,0,*5C
1518760886.31,34148,9.88,73192.5,-7.79,-8.67,-8.67,0,*53
1518760887.5,34149,9.81,73194.8,-7.79,-8.67,-8.67,0,*52
1518760888.7,34150,9.88,73198.8,-7.79,-8.67,-8.63,0,*5E
1518760889.89,34151,9.81,73190.0,-7.79,-8.67,-8.63,0,*5F
1518760891.08,34152,9.88,73196.0,-7.79,-8.67,-8.63,0,*5C
1518760892.31,34153,9.88,73196.5,-7.77,-8.71,-8.63,0,*54
1518760893.55,34154,9.88,73184.0,-7.79,-8.81,-8.81,0,*5E
1518760894.75,34155,9.88,73184.5,-7.79,-8.89,-8.75,0,*5C
1518760895.93,34156,9.88,73190.3,-7.79,-8.67,-8.67,0,*5C
1518760897.13,34157,9.88,73190.8,-7.79,-8.75,-8.75,0,*5D
1518760898.32,34158,9.88,73188.8,-7.79,-8.67,-8.67,0,*52
1518760899.51,34159,9.88,73194.3,-7.79,-8.63,-8.59,0,*5A
1518760900.71,34160,9.81,73190.8,-7.79,-8.63,-8.63,0,*59
1518760901.91,34161,9.88,73194.8,-7.79,-8.63,-8.63,0,*58
1518760903.1,34162,9.88,73190.8,-7.79,-8.63,-8.67,0,*5F
1518760904.29,34163,9.88,73192.5,-7.79,-8.59,-8.59,0,*5A
1518760905.49,34164,9.88,73196.0,-7.79,-8.63,-8.63,0,*5D
1518760906.71,34165,9.88,73196.3,-7.77,-8.63,-8.59,0,*5B
1518760907.93,34166,9.88,73198.3,-7.77,-8.63,-8.59,0,*58
1518760909.15,34167,9.88,73190.8,-7.79,-8.45,-8.51,0,*5B
1518760910.4,34168,9.88,73192.8,-7.79,-8.51,-8.51,0,*51
1518760911.62,34169,9.88,73192.5,-7.77,-8.59,-8.59,0,*5E
1518760912.84,34170,9.88,73196.3,-7.77,-8.45,-8.45,0,*56
1518760914.06,34171,9.88,73200.8,-7.77,-8.63,-8.59,0,*5E
1518760915.28,34172,9.88,73198.3,-7.77,-8.97,-8.97,0,*54
1518760916.49,34173,9.88,73198.5,-7.79,-8.93,-9.01,0,*51
1518760917.7,34174,9.88,73198.0,-7.79,-9.01,-9.01,0,*5C
1518760918.91,34175,9.88,73186.3,-7.79,-8.93,-8.93,0,*5D
1518760920.14,34176,9.88,73190.8,-7.77,-8.89,-8.89,0,*50
1518760921.35,34177,9.88,73188.0,-7.79,-8.89,-8.89,0,*5F
1518760922.55,34178,9.88,73188.0,-7.79,-9.01,-8.89,0,*51
1518760923.76,34179,9.88,73192.3,-7.79,-8.93,-8.89,0,*5A
1518760924.99,34180,9.88,73192.0,-7.79,-8.89,-8.81,0,*5F
1518760926.21,34181,9.88,73190.8,-7.77,-8.85,-8.75,0,*57
1518760927.44,34182,9.88,73188.0,-7.79,-8.81,-8.89,0,*5D
1518760928.65,34183,9.88,73192.3,-7.77,-8.75,-8.71,0,*5E
1518760929.84,34184,9.88,73188.8,-7.79,-8.67,-8.67,0,*53
1518760931.06,34185,9.88,73194.0,-7.77,-8.63,-8.59,0,*55
1518760932.25,34186,9.88,73190.8,-7.79,-8.67,-8.67,0,*51
1518760933.45,34187,9.88,73188.0,-7.79,-8.67,-8.63,0,*54
1518760934.64,34188,9.88,73192.0,-7.79,-8.67,-8.63,0,*5B
1518760935.83,34189,9.88,73194.8,-7.79,-8.67,-8.63,0,*5A
1518760937.03,34190,9.88,73194.8,-7.79,-8.63,-8.63,0,*56
1518760938.24,34191,9.88,73196.8,-7.77,-8.55,-8.55,0,*59
1518760939.46,34192,9.88,73198.3,-7.77,-8.55,-8.55,0,*5A
1518760940.68,34193,9.88,73196.3,-7.77,-8.41,-8.33,0,*5E
1518760941.89,34194,9.88,73198.5,-7.77,-8.29,-8.33,0,*57
1518760943.1,34195,9.88,73196.5,-7.77,-8.33,-8.33,0,*5D
1518760944.33,34196,9.88,73200.8,-7.79,-8.51,-8.45,0,*55
1518760945.55,34197,9.88,73196.5,-7.77,-8.45,-8.41,0,*5B
1518760946.75,34198,9.88,73198.5,-7.79,-8.63,-8.59,0,*57
1518760947.97,34199,9.88,73198.8,-7.77,-8.59,-8.59,0,*51
1518760949.18,34200,9.88,73196.5,-7.77,-8.63,-8.59,0,*5B
1518760950.38,34201,9.88,73196.8,-7.79,-8.67,-8.63,0,*59
1518760951.6,34202,9.88,73196.5,-7.77,-8.63,-8.63,0,*50
1518760952.82,34203,9.88,73200.3,-7.77,-8.63,-8.63,0,*51
1518760954.03,34204,9.88,73202.5,-7.77,-8.63,-8.63,0,*56
1518760955.23,34205,9.88,73200.0,-7.79,-8.67,-8.63,0,*5D
1518760956.45,34206,9.88,73202.3,-7.77,-8.63,-8.59,0,*5D
1518760957.67,34207,9.88,73202.3,-7.77,-8.63,-8.71,0,*56
1518760958.89,34208,9.88,73200.8,-7.77,-8.63,-8.63,0,*5A
1518760960.1,34209,9.88,73204.8,-7.77,-8.59,-8.63,0,*52
1518760961.3,34210,9.88,73200.0,-7.79,-8.63,-8.63,0,*5D
1518760962.5,34211,9.88,73204.3,-7.79,-8.63,-8.75,0,*5B
1518760963.71,34212,9.88,73208.8,-7.77,-8.63,-8.75,0,*56
1518760964.93,34213,9.88,73206.3,-7.77,-8.59,-8.59,0,*50
1518760966.15,34214,9.88,73206.5,-7.77,-8.59,-8.71,0,*5D
1518760967.37,34215,9.88,73202.0,-7.77,-8.71,-8.63,0,*55
1518760968.6,34216,9.88,73208.0,-7.77,-8.71,-8.71,0,*55
1518760969.82,34217,9.88,73206.5,-7.77,-8.85,-8.75,0,*5B
1518760971.04,34218,9.88,73204.8,-7.77,-8.85,-8.75,0,*54
1518760972.27,34219,9.88,73204.3,-7.77,-8.89,-8.97,0,*55
1518760973.48,34220,9.88,73204.8,-7.79,-8.93,-8.93,0,*5E
1518760974.7,34221,9.88,73204.0,-7.77,-8.89,-8.97,0,*5E
1518760975.93,34222,9.81,73206.3,-7.77,-8.97,-8.97,0,*52
1518760977.15,34223,9.88,73206.3,-7.77,-8.97,-8.97,0,*53
1518760978.37,34224,9.88,73202.8,-7.77,-8.97,-8.89,0,*5B
1518760979.6,34225,9.88,73198.5,-7.77,-8.89,-8.97,0,*5A
1518760980.83,34226,9.88,73190.0,-7.77,-8.75,-8.85,0,*59
1518760982.03,34227,9.88,73192.3,-7.79,-8.89,-8.89,0,*59
1518760983.25,34228,9.88,73196.3,-7.77,-8.63,-8.59,0,*51
1518760984.48,34229,9.88,73202.5,-7.77,-8.85,-8.85,0,*59
1518760985.74,34230,9.88,73194.5,-7.77,-9.01,-9.11,0,*50
1518760987.02,34231,9.88,73196.5,-7.77,-9.15,-9.11,0,*54
1518760988.24,34232,9.88,73198.3,-7.77,-9.27,-9.23,0,*57
1518760989.52,34233,9.88,73196.5,-7.77,-9.15,-9.15,0,*52
1518760990.72,34234,9.88,73200.5,-7.79,-9.05,-9.19,0,*56
1518760991.98,34235,9.88,73198.3,-7.79,-9.15,-9.15,0,*5A
1518760993.2,34236,9.88,73198.5,-7.79,-9.31,-9.41,0,*5E
1518760994.4,34237,9.88,73194.5,-7.79,-9.27,-9.31,0,*5F
1518760995.59,34238,9.88,73192.8,-7.79,-9.27,-9.19,0,*5A
1518760996.8,34239,9.88,73192.0,-7.79,-9.27,-9.27,0,*56
1518760998.05,34240,9.88,73192.5,-7.79,-9.15,-9.15,0,*58
1518760999.28,34241,9.88,73190.5,-7.79,-9.15,-9.05,0,*58
1518761000.54,34242,9.88,73188.3,-7.79,-9.15,-9.15,0,*5A
1518761001.76,34243,9.88,73188.3,-7.79,-9.05,-9.15,0,*5A
1518761002.97,34244,9.88,73186.0,-7.79,-8.93,-9.05,0,*52
1518761004.18,34245,9.88,73188.5,-7.79,-9.01,-9.01,0,*5D
1518761005.39,34246,9.88,73192.5,-7.79,-9.01,-9.01,0,*5E
1518761006.62,34247,9.88,73190.0,-7.81,-8.93,-8.93,0,*58
1518761007.83,34248,9.88,73190.0,-7.79,-9.01,-9.01,0,*50
1518761009.04,34249,9.88,73188.5,-7.79,-8.93,-9.01,0,*5B
1518761010.25,34250,9.88,73188.5,-7.79,-9.01,-9.05,0,*5D
1518761011.45,34251,9.88,73194.8,-7.79,-9.01,-9.05,0,*5C
1518761012.65,34252,9.88,73194.8,-7.79,-9.27,-9.19,0,*56
1518761013.88,34253,9.88,73196.0,-7.79,-9.15,-9.27,0,*5B
1518761015.14,34254,9.88,73196.8,-7.81,-9.15,-9.19,0,*56
1518761016.34,34255,9.88,73202.8,-7.79,-9.19,-9.27,0,*51
1518761017.54,34256,9.88,73198.5,-7.79,-9.19,-9.19,0,*5F
1518761018.77,34257,9.88,73198.5,-7.81,-9.05,-9.05,0,*59
1518761020.03,34258,9.88,73196.5,-7.81,-9.15,-9.05,0,*57
1518761021.26,34259,9.88,73198.5,-7.81,-9.05,-9.05,0,*57
1518761022.5,34260,9.88,73200.5,-7.81,-8.75,-8.81,0,*56
1518761023.71,34261,9.88,73204.3,-7.79,-9.05,-9.05,0,*5B
1518761024.9,34262,9.88,73198.3,-7.79,-9.31,-9.31,0,*58
1518761026.12,34263,9.88,73198.5,-7.79,-9.41,-9.31,0,*5E
1518761027.34,34264,9.88,73198.3,-7.79,-9.41,-9.31,0,*59
1518761028.57,34265,9.88,73198.8,-7.81,-9.31,-9.31,0,*58
1518761029.79,34266,9.88,73196.8,-7.81,-9.27,-9.19,0,*56
1518761031.02,34267,9.88,73194.3,-7.81,-9.19,-9.19,0,*5A
1518761032.25,34268,9.88,73194.5,-7.81,-9.05,-8.93,0,*5B
1518761033.48,34269,9.88,73194.8,-7.81,-8.89,-8.93,0,*5F
1518761034.72,34270,9.88,73192.3,-7.81,-8.93,-9.01,0,*56
1518761035.92,34271,9.88,73188.8,-7.83,-9.05,-9.05,0,*5F
1518761037.16,34272,9.88,73198.8,-7.81,-8.93,-8.89,0,*55
1518761038.37,34273,9.88,73206.3,-7.83,-8.97,-8.97,0,*5D
1518761039.62,34274,9.88,73208.8,-7.81,-8.89,-8.81,0,*50
1518761040.85,34275,9.88,73210.3,-7.81,-8.93,-8.93,0,*59
1518761042.09,34276,9.88,73204.5,-7.81,-9.01,-9.01,0,*5A
1518761043.32,34277,9.88,73208.3,-7.81,-9.01,-9.01,0,*5B
1518761044.57,34278,9.88,73204.5,-7.81,-8.81,-8.93,0,*57
1518761045.82,34279,9.88,73204.8,-7.81,-8.81,-8.89,0,*5D
1518761047.05,34280,9.88,73194.5,-7.81,-8.93,-8.93,0,*53
1518761048.28,34281,9.88,73188.8,-7.81,-8.75,-8.93,0,*5A
1518761049.5,34282,9.88,73184.0,-7.81,-8.67,-8.67,0,*51
1518761050.73,34283,9.88,73192.5,-7.81,-9.01,-9.05,0,*54
1518761052.01,34284,9.88,73192.8,-7.81,-9.15,-9.15,0,*57
1518761053.22,34285,9.88,73188.3,-7.83,-9.31,-9.27,0,*53
1518761054.45,34286,9.88,73194.0,-7.81,-9.19,-9.19,0,*55
1518761055.67,34287,9.88,73196.8,-7.81,-9.27,-9.27,0,*54
1518761056.88,34288,9.88,73194.0,-7.83,-9.23,-9.23,0,*59
1518761058.08,34289,9.88,73194.3,-7.83,-9.31,-9.23,0,*5B
1518761059.28,34290,9.88,73194.5,-7.83,-9.23,-9.31,0,*53
1518761060.49,34291,9.88,73196.8,-7.83,-9.23,-9.23,0,*51
1518761061.69,34292,9.88,73194.3,-7.83,-9.23,-9.23,0,*52
1518761062.95,34293,9.88,73190.5,-7.83,-9.37,-9.37,0,*53
1518761064.21,34294,9.88,73188.5,-7.83,-9.45,-9.37,0,*51
1518761065.43,34295,9.88,73188.8,-7.85,-9.19,-9.31,0,*59
1518761066.7,34296,9.88,73192.5,-7.83,-9.11,-9.11,0,*56
1518761067.96,34297,9.88,73194.0,-7.83,-9.11,-9.11,0,*57
1518761069.22,34298,9.88,73190.3,-7.83,-9.11,-9.11,0,*58
1518761070.46,34299,9.88,73188.8,-7.83,-9.11,-9.05,0,*5C
1518761071.67,34300,9.88,73184.0,-7.83,-9.05,-9.05,0,*58
1518761072.9,34301,9.88,73190.0,-7.83,-9.11,-8.97,0,*56
1518761074.13,34302,9.88,73188.3,-7.83,-8.81,-8.85,0,*5E
1518761075.34,34303,9.88,73198.0,-7.83,-9.05,-9.05,0,*5B
1518761076.55,34304,9.88,73196.0,-7.83,-9.19,-9.19,0,*5C
1518761077.75,34305,9.88,73192.0,-7.83,-9.23,-9.19,0,*54
1518761078.99,34306,9.88,73188.8,-7.83,-9.23,-9.11,0,*5F
1518761080.22,34307,9.88,73190.0,-7.83,-9.11,-9.05,0,*5A
1518761081.43,34308,9.88,73188.5,-7.83,-8.71,-8.71,0,*50
1518761082.66,34309,9.88,73192.3,-7.83,-8.51,-8.63,0,*50
1518761083.87,34310,9.88,73192.0,-7.83,-8.67,-8.85,0,*55
1518761085.07,34311,9.88,73192.8,-7.83,-8.25,-8.29,0,*54
1518761086.31,34312,9.88,73188.0,-7.81,-8.89,-8.89,0,*59
1518761087.51,34313,9.88,73188.3,-7.83,-9.27,-9.19,0,*57
1518761088.75,34314,9.88,73184.3,-7.83,-9.11,-9.19,0,*55
1518761089.95,34315,9.88,73184.5,-7.83,-9.19,-9.19,0,*5C
1518761091.16,34316,9.88,73184.0,-7.83,-9.31,-9.19,0,*55
1518761092.42,34317,9.88,73190.3,-7.83,-9.11,-9.11,0,*5E
1518761093.63,34318,9.88,73190.5,-7.83,-9.19,-8.97,0,*56
1518761094.86,34319,9.88,73188.5,-7.81,-9.01,-8.93,0,*58
1518761096.07,34320,9.88,73186.0,-7.83,-9.05,-9.05,0,*5A
1518761097.28,34321,9.88,73184.3,-7.83,-9.05,-8.97,0,*51
1518761098.49,34322,9.88,73188.0,-7.83,-9.05,-8.97,0,*52
1518761099.69,34323,9.88,73190.3,-7.83,-9.05,-9.19,0,*54
1518761100.9,34324,9.88,73188.8,-7.83,-9.19,-9.19,0,*5E
1518761102.13,34325,9.88,73190.8,-7.83,-9.11,-9.05,0,*5A
1518761103.37,34326,9.88,73192.3,-7.83,-9.19,-9.11,0,*54
1518761104.6,34327,9.88,73188.8,-7.83,-9.11,-9.19,0,*55
1518761105.88,34328,9.88,73190.5,-7.81,-9.15,-9.15,0,*50
1518761107.09,34329,9.88,73188.0,-7.83,-9.23,-9.23,0,*53
1518761108.29,34330,9.88,73196.0,-7.83,-9.23,-9.19,0,*52
1518761109.53,34331,9.88,73192.5,-7.83,-9.19,-9.11,0,*52
1518761110.73,34332,9.88,73192.3,-7.83,-9.19,-9.19,0,*59
1518761112.02,34333,9.88,73190.3,-7.85,-9.11,-9.11,0,*5E
1518761113.24,34334,9.88,73188.5,-7.85,-9.19,-9.19,0,*59
1518761114.46,34335,9.88,73188.0,-7.85,-9.31,-9.23,0,*5B
1518761115.72,34336,9.88,73188.5,-7.85,-9.23,-9.11,0,*5A
1518761116.97,34337,9.88,73184.0,-7.85,-9.11,-9.05,0,*5F
1518761118.23,34338,9.88,73184.3,-7.85,-9.19,-9.11,0,*5D
1518761119.48,34339,9.88,73184.3,-7.89,-9.15,-9.15,0,*58
1518761120.75,34340,9.88,73186.5,-7.85,-8.81,-8.81,0,*5A
1518761121.94,34341,9.88,73186.0,-7.89,-8.59,-8.55,0,*5B
1518761123.16,34342,9.88,73184.3,-7.85,-8.41,-8.55,0,*5D
1518761124.35,34343,9.88,73180.0,-7.89,-8.67,-8.71,0,*52
1518761125.56,34344,9.88,73182.0,-7.89,-8.85,-8.89,0,*5E
1518761126.79,34345,9.88,73170.0,-7.89,-9.11,-9.01,0,*52
1518761128.04,34346,9.88,73172.5,-7.89,-9.15,-9.11,0,*54
1518761129.33,34347,9.88,73186.8,-7.85,-9.11,-9.11,0,*5D
1518761130.58,34348,9.88,73188.5,-7.89,-9.41,-9.41,0,*5E
1518761131.8,34349,9.88,73190.0,-7.85,-9.19,-9.23,0,*5A
1518761133.03,34350,9.88,73188.5,-7.85,-9.23,-9.23,0,*5B
1518761134.22,34351,9.88,73184.5,-7.89,-9.23,-9.23,0,*56
1518761135.48,34352,9.88,73186.5,-7.85,-9.19,-9.11,0,*51
1518761136.71,34353,9.88,73188.3,-7.89,-9.11,-9.01,0,*55
1518761137.9,34354,9.88,73188.8,-7.89,-8.97,-8.75,0,*5F
1518761139.14,34355,9.88,73184.5,-7.85,-8.93,-8.85,0,*59
1518761140.33,34356,9.88,73192.0,-7.89,-8.97,-8.97,0,*51
1518761141.54,34357,9.88,73192.3,-7.89,-8.85,-8.85,0,*50
1518761142.77,34358,9.88,73194.5,-7.85,-8.71,-8.71,0,*53
1518761143.96,34359,9.88,73196.3,-7.89,-8.75,-8.75,0,*5E
1518761145.16,34360,9.88,73196.3,-7.89,-8.71,-8.75,0,*50
1518761146.39,34361,9.88,73194.3,-7.85,-8.85,-8.97,0,*5A
1518761147.65,34362,9.88,73188.3,-7.89,-9.15,-9.15,0,*56
1518761148.88,34363,9.88,73188.5,-7.85,-9.05,-9.05,0,*5B
1518761150.11,34364,9.88,73192.8,-7.89,-9.11,-9.01,0,*51
1518761151.39,34365,9.88,73190.0,-7.85,-9.11,-9.11,0,*5D
1518761152.61,34366,9.88,73188.3,-7.85,-9.31,-9.19,0,*54
1518761153.81,34367,9.88,73186.5,-7.89,-9.27,-9.27,0,*53
1518761155.01,34368,9.88,73186.0,-7.89,-9.23,-9.23,0,*5C
1518761156.26,34369,9.88,73184.0,-7.89,-9.37,-9.37,0,*5D
1518761157.54,34370,9.88,73184.3,-7.85,-9.45,-9.37,0,*5C
1518761158.82,34371,9.88,73182.0,-7.85,-9.45,-9.37,0,*5D
1518761160.07,34372,9.88,73180.3,-7.89,-9.37,-9.37,0,*57
1518761161.33,34373,9.88,73180.8,-7.89,-9.37,-9.41,0,*57
1518761162.52,34374,9.88,73170.8,-7.89,-9.27,-9.27,0,*51
1518761163.78,34375,9.88,73174.0,-7.89,-9.15,-9.15,0,*50
1518761165.01,34376,9.88,73174.8,-7.89,-9.27,-9.37,0,*52
1518761166.23,34377,9.88,73182.8,-7.85,-9.23,-9.23,0,*5E
1518761167.46,34378,9.88,73184.3,-7.89,-9.27,-9.37,0,*5C
1518761168.68,34379,9.88,73184.0,-7.85,-9.31,-9.23,0,*53
1518761169.93,34380,9.88,73186.0,-7.89,-9.37,-9.37,0,*5A
1518761171.13,34381,9.88,73182.5,-7.89,-9.27,-9.27,0,*5B
1518761172.35,34382,9.88,73182.5,-7.89,-9.23,-9.15,0,*5D
1518761173.61,34383,9.88,73192.0,-7.85,-9.11,-9.19,0,*5D
1518761174.84,34384,9.88,73192.8,-7.85,-9.19,-9.05,0,*5F
1518761176.09,34385,9.88,73188.3,-7.89,-9.11,-9.11,0,*5F
1518761177.29,34386,9.88,73184.8,-7.89,-9.01,-8.97,0,*52
1518761178.52,34387,9.88,73190.0,-7.89,-9.11,-8.97,0,*52
1518761179.73,34388,9.88,73194.5,-7.89,-8.93,-8.85,0,*55
1518761180.98,34389,9.88,73192.0,-7.85,-8.81,-8.85,0,*5B
1518761182.18,34390,9.88,73192.8,-7.89,-8.89,-8.97,0,*54
1518761183.41,34391,9.88,73192.0,-7.85,-9.19,-9.19,0,*56
1518761184.63,34392,9.88,73190.3,-7.85,-9.19,-9.19,0,*55
1518761185.86,34393,9.88,73184.3,-7.85,-9.19,-9.05,0,*59
1518761187.12,34394,9.88,73184.5,-7.85,-9.11,-8.97,0,*5C
1518761188.34,34395,9.88,73184.3,-7.85,-8.97,-8.93,0,*56
1518761189.6,34396,9.88,73186.0,-7.85,-9.11,-9.05,0,*54
1518761190.82,34397,9.88,73184.8,-7.85,-9.23,-9.23,0,*50
1518761192.05,34398,9.88,73186.8,-7.85,-9.31,-9.23,0,*5C
1518761193.3,34399,9.88,73188.3,-7.89,-9.49,-9.37,0,*5B
1518761194.54,34400,9.88,73184.8,-7.85,-9.37,-9.31,0,*5F
1518761195.83,34401,9.88,73188.5,-7.85,-9.41,-9.37,0,*59
1518761197.08,34402,9.88,73190.3,-7.85,-9.37,-9.23,0,*5E
1518761198.36,34403,9.88,73192.8,-7.85,-9.37,-9.37,0,*5A
1518761199.58,34404,9.88,73194.3,-7.85,-9.19,-9.19,0,*5D
1518761200.81,34405,9.88,73194.5,-7.85,-9.19,-9.19,0,*5C
1518761202.03,34406,9.88,73184.8,-7.89,-9.23,-9.15,0,*56
1518761203.26,34407,9.88,73178.5,-7.89,-9.37,-9.27,0,*53
1518761204.5,34408,9.88,73178.0,-7.89,-9.49,-9.41,0,*55
1518761205.75,34409,9.88,73180.3,-7.89,-9.53,-9.41,0,*5F
1518761206.94,34410,9.88,73180.3,-7.89,-9.27,-9.23,0,*50
1518761208.17,34411,9.88,73180.3,-7.89,-9.41,-9.23,0,*51
1518761209.39,34412,9.88,73180.0,-7.85,-8.97,-8.97,0,*5A
1518761210.61,34413,9.88,73180.0,-7.85,-8.55,-8.55,0,*5B
1518761211.84,34414,9.88,73180.3,-7.85,-8.41,-8.37,0,*5D
1518761213.07,34415,9.88,73186.8,-7.85,-8.41,-8.41,0,*5D
1518761214.32,34416,9.88,73180.8,-7.85,-8.51,-8.41,0,*5F
1518761215.55,34417,9.88,73184.8,-7.85,-8.41,-8.37,0,*5E
1518761216.75,34418,9.88,73184.0,-7.83,-8.41,-8.29,0,*58
1518761217.95,34419,9.88,73184.5,-7.83,-8.29,-8.25,0,*5B
1518761219.2,34420,9.88,73188.0,-7.81,-8.21,-8.11,0,*5C
1518761220.43,34421,9.88,73184.0,-7.81,-8.33,-8.21,0,*5D
1518761221.71,34422,9.88,73190.5,-7.81,-8.11,-8.11,0,*5D
1518761222.96,34423,9.88,73192.3,-7.81,-8.25,-8.11,0,*5B
1518761224.18,34424,9.88,73192.8,-7.81,-8.37,-8.25,0,*58
1518761225.43,34425,9.88,73184.8,-7.77,-8.59,-8.51,0,*5B
1518761226.65,34426,9.88,73182.0,-7.79,-8.81,-8.75,0,*55
1518761227.88,34427,9.88,73182.5,-7.79,-9.15,-9.05,0,*5E
1518761229.13,34428,9.88,73186.8,-7.79,-9.15,-9.15,0,*50
1518761230.36,34429,9.88,73180.3,-7.81,-9.27,-9.27,0,*56
1518761231.64,34430,9.88,73184.3,-7.81,-9.15,-9.15,0,*5E
1518761232.88,34431,9.88,73176.8,-7.83,-9.19,-9.11,0,*55
1518761234.11,34432,9.88,73172.8,-7.81,-9.27,-9.27,0,*5C
1518761235.31,34433,9.88,73178.3,-7.83,-9.31,-9.31,0,*5F
1518761236.55,34434,9.88,73176.3,-7.81,-9.41,-9.31,0,*5D
1518761237.76,34435,9.88,73178.5,-7.83,-9.23,-9.31,0,*5A
1518761238.98,34436,9.88,73178.3,-7.81,-9.27,-9.27,0,*58
1518761240.24,34437,9.88,73178.3,-7.83,-9.45,-9.45,0,*5B
1518761241.52,34438,9.88,73178.3,-7.81,-9.53,-9.45,0,*51
1518761242.74,34439,9.88,73182.3,-7.83,-9.49,-9.31,0,*5A
1518761243.97,34440,9.88,73182.5,-7.83,-9.11,-8.97,0,*54
1518761245.2,34441,9.88,73182.0,-7.85,-9.31,-9.19,0,*56
1518761246.42,34442,9.88,73186.5,-7.85,-8.97,-8.97,0,*5F
1518761247.65,34443,9.88,73186.0,-7.85,-8.93,-8.93,0,*5E
1518761248.88,34444,9.88,73190.3,-7.85,-8.97,-8.93,0,*5D
1518761250.11,34445,9.88,73186.0,-7.85,-8.97,-8.93,0,*5C
1518761251.33,34446,9.88,73188.5,-7.85,-9.05,-8.97,0,*51
1518761252.59,34447,9.88,73184.3,-7.85,-9.19,-9.11,0,*52
1518761253.82,34448,9.88,73188.5,-7.83,-9.11,-9.19,0,*5B
1518761255.05,34449,9.88,73188.3,-7.85,-8.93,-8.93,0,*54
1518761256.28,34450,9.88,73190.5,-7.85,-8.97,-8.85,0,*5F
1518761257.51,34451,9.88,73184.5,-7.85,-9.05,-9.05,0,*5D
1518761258.74,34452,9.88,73192.0,-7.85,-8.93,-8.93,0,*5E
1518761259.96,34453,9.88,73190.8,-7.85,-8.67,-8.55,0,*5E
1518761261.18,34454,9.88,73186.8,-7.85,-8.67,-8.67,0,*58
1518761262.4,34455,9.88,73188.8,-7.85,-8.67,-8.63,0,*5D
1518761263.62,34456,9.88,73182.5,-7.85,-8.67,-8.55,0,*5B
1518761264.87,34457,9.88,73184.5,-7.85,-8.25,-8.11,0,*5C
1518761266.14,34458,9.88,73188.3,-7.85,-7.99,-7.99,0,*54
1518761267.39,34459,9.88,73186.8,-7.83,-7.99,-7.91,0,*5B
1518761268.65,34460,9.88,73184.8,-7.81,-7.95,-7.87,0,*58
1518761269.92,34461,9.88,73188.5,-7.81,-7.95,-7.95,0,*5A
1518761271.17,34462,9.88,73186.8,-7.83,-7.99,-7.99,0,*5B
1518761272.43,34463,9.88,73186.5,-7.81,-7.95,-7.87,0,*5B
1518761273.65,34464,9.88,73192.3,-7.79,-7.95,-7.87,0,*5B
1518761274.9,34465,9.88,73190.8,-7.79,-7.99,-7.99,0,*59
1518761276.17,34466,9.88,73188.0,-7.77,-8.07,-7.95,0,*50
1518761277.42,34467,9.88,73188.8,-7.77,-8.07,-8.17,0,*54
1518761278.64,34468,9.88,73192.3,-7.77,-8.59,-8.59,0,*5A
1518761279.85,34469,9.88,73190.0,-7.77,-8.33,-8.33,0,*5B
1518761281.07,34470,9.88,73184.0,-7.77,-8.41,-8.33,0,*56
1518761282.26,34471,9.88,73184.5,-7.75,-8.41,-8.33,0,*55
1518761283.46,34472,9.88,73184.0,-7.75,-8.41,-8.33,0,*56
1518761284.65,34473,9.88,73180.8,-7.75,-8.45,-8.33,0,*53
1518761285.86,34474,9.88,73180.3,-7.77,-8.59,-8.55,0,*5B
1518761287.08,34475,9.88,73180.3,-7.77,-8.75,-8.63,0,*51
1518761288.28,34476,9.88,73182.3,-7.75,-8.75,-8.63,0,*50
1518761289.48,34477,9.88,73184.0,-7.75,-8.71,-8.63,0,*55
1518761290.68,34478,9.88,73188.3,-7.75,-8.71,-8.63,0,*5A
1518761291.88,34479,9.88,73188.8,-7.75,-8.97,-8.89,0,*57
1518761293.09,34480,9.88,73188.3,-7.75,-8.89,-8.89,0,*5E
1518761294.29,34481,9.88,73188.0,-7.75,-8.97,-8.89,0,*50
1518761295.52,34482,9.88,73194.3,-7.75,-9.11,-8.97,0,*53
1518761296.72,34483,9.88,73186.0,-7.75,-8.97,-8.97,0,*5D
1518761297.95,34484,9.88,73180.0,-7.75,-9.23,-9.11,0,*5B
1518761299.19,34485,9.88,73182.5,-7.77,-9.23,-9.15,0,*5C
1518761300.47,34486,9.88,73190.8,-7.77,-9.15,-9.11,0,*5E
1518761301.68,34487,9.88,73188.5,-7.79,-9.01,-9.01,0,*55
1518761302.91,34488,9.88,73184.3,-7.77,-8.89,-8.97,0,*5B
1518761304.16,34489,9.88,73186.5,-7.77,-8.97,-9.11,0,*5A
1518761305.44,34490,9.88,73184.3,-7.77,-9.15,-9.15,0,*5D
1518761306.71,34491,9.88,73190.3,-7.77,-9.11,-9.15,0,*58
1518761307.97,34492,9.88,73190.3,-7.79,-9.15,-9.15,0,*51
1518761309.2,34493,9.88,73198.5,-7.79,-9.05,-9.15,0,*51
1518761310.43,34494,9.88,73192.5,-7.79,-9.15,-9.27,0,*56
1518761311.63,34495,9.88,73190.3,-7.79,-9.19,-9.19,0,*56
1518761312.83,34496,9.88,73184.3,-7.79,-9.19,-9.19,0,*55
1518761314.05,34497,9.88,73180.3,-7.79,-9.01,-9.15,0,*51
1518761315.31,34498,9.88,73180.0,-7.77,-9.15,-9.01,0,*50